COSMOS 2251 DEB, 35902

Orbit data source: Space-Track

COSMOS 2251 DEB, 35902 is space debris in LEO originally from a launch on Wed, 16 Jun 1993 UTC launched from the Plesetsk Missile And Space Complex (PKMTR). The debris from Iridium 33, an American commercial communications satellite, has been tracked extensively since its accidental collision with the defunct Russian satellite Cosmos 2251 in 2009. This event, occurring at high speed in low Earth orbit (LEO), generated thousands of pieces of space debris, significantly increasing the risk of further collisions. The Iridium 33 debris cloud has impacted space traffic management and orbital debris mitigation strategies, making it a subject of ongoing study in space situational awareness.

Loading next visibility...
Identifier
35902, 1993-036AUR
Orbit
LEO
Country
Flag of CISCIS
Related business
Manufacturer
Unknown
Mission
Spacecraft
Bus & Motor
Unknown
Mass
Unknown
Launch date (UTC)
Icon of a cake. It is the launch day of the satellite!1993-06-16 (33 years ago)
Launch vehicle
Unknown
Launch site
Plesetsk Missile And Space Complex (PKMTR)
Object type
Payload
Rocket body
Debris
Shape & HBR
Unknown shape, 0.1 m
Radar Cross Section
Small (<0.1 m²)

Expand to show TLE details & history
Last TLE update: 11 hours ago

TLE from 11 hours ago
0 COSMOS 2251 DEB
1 35902U 93036AUR 26166.99860411  .00001215  00000-0  47479-3 0  9992
2 35902  73.9811 258.0416 0103110 331.9230  27.6378 14.27806972637738
Epoch: 2026-06-15T23:57Z
TLE epoch observation values (Epoch: 2026-06-15T23:57:59.395Z)
Latitude
-0.00001°
Longitude
-5.73283°
Altitude
736.265 km
Speed
7.521 km/s
True Right ascension
17h 12m 09s
True Declination
0° 00' 00"
Sunlit
Object was in full shadow at epoch
Visualization orbit readout
Latitude
Unknown
Longitude
Unknown
Altitude
Unknown
Speed
Unknown
Apparent Right ascension
Unknown
Apparent Declination
Unknown
Sunlit
N/A
Visualization observer readout
Local Sidereal Time
21:15:42
Azimuth
Unknown
Elevation
Unknown
Doppler factor
Unknown
Orbital elements
Apogee altitude
870.688 km
Perigee altitude
722.728 km
Semi-major axis
7,174.845 km
Eccentricity
0.01031
Inclination
73.9811°
RAAN
258.0416°
Arg. of periapsis
331.923°
True anomaly
28.19222°
Mean anomaly
27.6378°
Eccentric anomaly
27.91437°
Mean motion
3.57128 °/min
Orbital period
100.8 mins
BSTAR
0.00047479

Documentation

Showing up to 5 results
|